San Benito, TX

3:25 AM CST on February 07, 2016 (GMT -0600)
Valley International

Weather History for KHRL - January, 2012

Change the Weather History Date:

Sunday, January 22, 2012

  Actual Average Record
Temperature  
Mean Temperature 75 °F 60 °F  
Max Temperature 84 °F 71 °F 87 °F (1943)
Min Temperature 66 °F 50 °F 23 °F (1901)
Degree Days  
Heating Degree Days 0 6  
Month to date heating degree days 75 148  
Since 1 July heating degree days 274 396  
Cooling Degree Days 10 1  
Month to date cooling degree days 79 40  
Year to date cooling degree days 79 40  
Growing Degree Days 24 (Base 50)    
Moisture  
Dew Point 68 °F    
Average Humidity 79    
Maximum Humidity 100    
Minimum Humidity 58    
Precipitation  
Precipitation 0.00 in 0.05 in 1.03 in (1966)
Month to date precipitation 0.26 0.66  
Year to date precipitation 0.26 0.66  
Sea Level Pressure  
Sea Level Pressure 29.82 in    
Wind  
Wind Speed 15 mph (South)    
Max Wind Speed 30 mph    
Max Gust Speed 38 mph    
Visibility 8 miles    
Events      
T = Trace of Precipitation, MM = Missing Value Source: NWS Daily Summary

Daily Weather History Graph

Daily Weather History Graph

Search for Another Location

Airport or City:

Trip Planner

Search our weather history database for the weather conditions in past years. The results will help you decide how hot, cold, wet, or windy it might be!

Date:

Astronomy

Jan. 22, 2012 Rise Set
Actual Time 7:18 AM CST 6:05 PM CST
Civil Twilight 6:54 AM CST 6:30 PM CST
Nautical Twilight 6:26 AM CST 6:58 PM CST
Astronomical Twilight 5:58 AM CST 7:26 PM CST
Moon 6:36 AM CST (1/22) 5:46 PM CST (1/22)
Length of Visible Light 11h 36m
Length of Day
10h 46m
Waning Crescent, 0% of the Moon is Illuminated
Jan 22
Waning Crescent
Jan 23
New
Jan 30
First Quarter
Feb 7
Full
Feb 14
Last Quarter

Hourly Weather History & Observations

Time (CST) Temp. Heat Index Dew Point Humidity Pressure Visibility Wind Dir Wind Speed Gust Speed Precip Events Conditions
12:10 AM 69.8 °F - 68.0 °F 94% 29.86 in 5.0 mi SSE 6.9 mph - N/A   Overcast
12:37 AM 69.8 °F - 69.8 °F 100% 29.86 in 5.0 mi SE 10.4 mph - N/A   Mostly Cloudy
12:52 AM 70.0 °F - 69.1 °F 97% 29.85 in 4.0 mi SSE 10.4 mph - N/A   Mostly Cloudy
1:52 AM 72.0 °F - 70.0 °F 93% 29.84 in 7.0 mi SSE 10.4 mph - N/A   Overcast
2:24 AM 71.6 °F - 69.8 °F 94% 29.84 in 8.0 mi South 12.7 mph - N/A   Mostly Cloudy
2:37 AM 71.6 °F - 69.8 °F 94% 29.84 in 9.0 mi South 16.1 mph - N/A   Mostly Cloudy
2:52 AM 72.0 °F - 69.1 °F 91% 29.83 in 9.0 mi South 16.1 mph 21.9 mph N/A   Mostly Cloudy
3:52 AM 73.0 °F - 69.1 °F 87% 29.81 in 10.0 mi South 15.0 mph - N/A   Overcast
4:12 AM 73.4 °F - 69.8 °F 88% 29.81 in 10.0 mi South 15.0 mph - N/A   Overcast
4:25 AM 73.4 °F - 69.8 °F 88% 29.80 in 10.0 mi South 17.3 mph - N/A   Overcast
4:45 AM 73.4 °F - 69.8 °F 88% 29.80 in 10.0 mi South 12.7 mph - N/A   Overcast
4:52 AM 73.0 °F - 69.1 °F 87% 29.80 in 10.0 mi South 18.4 mph 21.9 mph N/A   Overcast
5:12 AM 73.4 °F - 69.8 °F 88% 29.80 in 10.0 mi South 17.3 mph 21.9 mph N/A   Overcast
5:52 AM 72.0 °F - 68.0 °F 87% 29.81 in 10.0 mi South 12.7 mph - N/A   Mostly Cloudy
6:10 AM 71.6 °F - 68.0 °F 88% 29.81 in 10.0 mi South 13.8 mph - N/A   Partly Cloudy
6:52 AM 70.0 °F - 68.0 °F 93% 29.81 in 9.0 mi South 11.5 mph - N/A   Clear
7:52 AM 69.8 °F - 66.2 °F 88% 29.82 in 8.0 mi South 9.2 mph - N/A   Partly Cloudy
8:52 AM 73.9 °F - 68.0 °F 82% 29.83 in 10.0 mi South 11.5 mph - N/A   Scattered Clouds
9:10 AM 73.4 °F - 66.2 °F 78% 29.83 in 10.0 mi South 12.7 mph - N/A   Mostly Cloudy
9:31 AM 73.4 °F - 68.0 °F 83% 29.84 in 10.0 mi South 13.8 mph - N/A   Mostly Cloudy
9:52 AM 75.2 °F - 68.0 °F 78% 29.86 in 10.0 mi SSW 12.7 mph - N/A   Mostly Cloudy
10:52 AM 79.0 °F - 66.9 °F 66% 29.83 in 10.0 mi South 23.0 mph 32.2 mph N/A   Overcast
11:52 AM 80.1 °F 82.1 °F 66.0 °F 62% 29.81 in 10.0 mi South 21.9 mph - N/A   Mostly Cloudy
12:40 PM 80.6 °F 82.7 °F 66.2 °F 61% 29.78 in 10.0 mi South 24.2 mph 31.1 mph N/A   Partly Cloudy
12:52 PM 81.0 °F 83.0 °F 66.0 °F 60% 29.78 in 10.0 mi South 24.2 mph 31.1 mph N/A   Partly Cloudy
1:33 PM 80.6 °F 82.7 °F 66.2 °F 61% 29.78 in 10.0 mi SSW 20.7 mph 29.9 mph N/A   Mostly Cloudy
1:52 PM 81.0 °F 83.3 °F 66.9 °F 62% 29.76 in 10.0 mi South 24.2 mph - N/A   Scattered Clouds
2:52 PM 82.4 °F 84.6 °F 66.2 °F 58% 29.76 in 10.0 mi South 21.9 mph - N/A   Clear
3:52 PM 82.9 °F 85.4 °F 66.9 °F 58% 29.78 in 10.0 mi South 16.1 mph - N/A   Clear
4:52 PM 80.1 °F 82.1 °F 66.0 °F 62% 29.77 in 7.0 mi South 18.4 mph - N/A   Clear
5:52 PM 75.9 °F - 66.0 °F 71% 29.80 in 6.0 mi South 13.8 mph - N/A   Haze
6:52 PM 72.0 °F - 66.0 °F 81% 29.81 in 6.0 mi SSE 10.4 mph - N/A   Haze
7:52 PM 69.8 °F - 66.2 °F 88% 29.83 in 5.0 mi SSE 8.1 mph - N/A   Clear
8:52 PM 68.0 °F - 66.0 °F 93% 29.86 in 4.0 mi SSE 6.9 mph - N/A   Clear
9:52 PM 66.0 °F - 64.9 °F 96% 29.87 in 3.0 mi South 6.9 mph - N/A   Clear
10:52 PM 69.1 °F - 66.9 °F 93% 29.86 in 3.0 mi South 11.5 mph - N/A   Clear
11:13 PM 69.8 °F - 68.0 °F 94% 29.87 in 3.0 mi South 10.4 mph - N/A   Scattered Clouds
11:22 PM 71.6 °F - 69.8 °F 94% 29.86 in 3.0 mi South 13.8 mph - N/A   Mostly Cloudy
11:52 PM 71.1 °F - 69.1 °F 93% 29.87 in 4.0 mi South 12.7 mph - N/A   Overcast